This is the latest recevied weather packets stored in our database for station/object NK7E-1. If no packets are shown the sender has not sent any weather packets the latest 10 day(s).
| Time | Temp. | Humidity | Pressure | Rain* | Wind** | Luminosity | Snow |
|---|---|---|---|---|---|---|---|
| 1777879200 | 22.22° C | 32% | 1013.5 hPa | 0 mm | - | - | - |
| 1777878600 | 21.67° C | 31% | 1013.5 hPa | 0 mm | - | - | - |
| 1777878005 | 21.11° C | 30% | 1013.5 hPa | 0 mm | - | - | - |
| 1777877401 | 21.11° C | 30% | 1013.5 hPa | 0 mm | - | - | - |
| 1777876802 | 21.67° C | 30% | 1013.3 hPa | 0 mm | - | - | - |
| 1777876201 | 21.67° C | 31% | 1013.5 hPa | 0 mm | - | - | - |
| 1777875601 | 22.22° C | 29% | 1013.4 hPa | 0 mm | - | - | - |
| 1777875000 | 22.22° C | 28% | 1013.5 hPa | 0 mm | - | - | - |
| 1777874403 | 22.78° C | 28% | 1013.7 hPa | 0 mm | - | - | - |
| 1777873801 | 22.78° C | 28% | 1013.4 hPa | 0 mm | - | - | - |
| 1777873202 | 22.22° C | 28% | 1013.6 hPa | 0 mm | - | - | - |
| 1777872601 | 22.78° C | 29% | 1013.8 hPa | 0 mm | - | - | - |
| 1777872002 | 22.78° C | 29% | 1013.7 hPa | 0 mm | - | - | - |
| 1777871400 | 22.78° C | 29% | 1013.7 hPa | 0 mm | - | - | - |
| 1777870801 | 23.33° C | 28% | 1013.5 hPa | 0 mm | - | - | - |
| 1777870201 | 23.33° C | 28% | 1013.5 hPa | 0 mm | - | - | - |
| 1777869601 | 23.89° C | 27% | 1013.5 hPa | 0 mm | - | - | - |
| 1777869000 | 23.89° C | 26% | 1013.5 hPa | 0 mm | - | - | - |
| 1777868402 | 23.89° C | 26% | 1013.3 hPa | 0 mm | - | - | - |
| 1777867801 | 24.44° C | 25% | 1013.4 hPa | 0 mm | - | - | - |
| 1777867202 | 24.44° C | 25% | 1013.2 hPa | 0 mm | - | - | - |
| 1777866602 | 24.44° C | 24% | 1012.8 hPa | 0 mm | - | - | - |
| 1777866002 | 25° C | 23% | 1012.5 hPa | 0 mm | - | - | - |
| 1777865401 | 25° C | 22% | 1012.5 hPa | 0 mm | - | - | - |
| 1777864802 | 25° C | 20% | 1012.4 hPa | 0 mm | - | - | - |
* Rain latest hour (hover to see other rain measurements)
** Current wind speed in m/s (hover to see current wind gust speed)